[[{"header":{"parameterUnit":"m.s-1","parameterCategory":1,"la1":30.2991,"la2":30.254,"lo1":-89.0895,"lo2":-89.0444,"dy":0.0017,"dx":0.0017,"nx":28,"ny":28,"refTime":"2023-03-20T15:00:00:Z","depth":0,"parameterNumber":2,"parameterNumberName":"U-component_of_WINDS"},"data":[0,0,0,0,0,0,0,0,0,0,0,0,0,0,0,0,0,0,0,0,0,0,0,0,0,0,0,0,0,0,0,0,0,0,0,0,0,0,0,0,0,0,0,0,0,0,0,0,0,0,0,0,0,0,0,0,0,0,-0.1371,-0.1371,0,-0.1283,-0.1282,-0.1281,-0.1204,-0.1203,-0.1203,-0.1202,-0.1111,-0.1109,-0.1107,0,0,0,0,0,0,0,0,0,0,0,0,0,-0.1475,-0.1473,-0.1372,-0.137,-0.1369,-0.1283,-0.1282,-0.128,-0.1204,-0.1203,-0.1202,-0.1201,-0.1111,-0.1109,-0.1107,0,0,0,0,0,0,0,0,0,0,0,0,0,-0.1412,-0.1473,-0.1372,-0.1321,-0.1316,-0.1283,-0.1282,-0.128,-0.1205,-0.1203,-0.1202,-0.1201,-0.1112,-0.1109,-0.1107,-0.1118,0,0,-0.11,-0.1098,0,0,0,0,0,0,0,0,-0.1416,-0.1409,-0.133,-0.1324,-0.1318,-0.1253,-0.1284,-0.1226,-0.1205,-0.1247,-0.1202,-0.12,-0.1159,-0.1153,-0.1139,-0.1113,-0.1109,-0.1099,-0.1098,-0.1097,-0.1096,0,0,0,0,0,0,0,-0.142,-0.1412,-0.1336,-0.1329,-0.1322,-0.1302,-0.1292,-0.1273,-0.1211,-0.1243,-0.1237,-0.1228,-0.1156,-0.1141,-0.1136,-0.1108,-0.1099,-0.1097,-0.1096,-0.1095,-0.1087,-0.1088,0,0,0,0,0,0,-0.1433,-0.1416,-0.1339,-0.1334,-0.1365,-0.1302,-0.129,-0.1275,-0.1211,-0.12,-0.1229,-0.1225,-0.1146,-0.1139,-0.1133,-0.1142,-0.1097,-0.1094,-0.1093,-0.1086,-0.1087,-0.1089,0,0,0,0,0,0,-0.1435,-0.1426,-0.1343,-0.1373,-0.1361,-0.1301,-0.1285,-0.1274,-0.126,-0.1201,-0.1189,-0.1226,-0.1145,-0.1136,-0.1122,-0.1137,-0.1093,-0.1091,-0.1084,-0.1086,-0.1088,-0.1159,0,0,0,0,0,0,-0.1438,-0.1428,-0.1431,-0.1374,-0.136,-0.1334,-0.1286,-0.1274,-0.1256,-0.1249,-0.1195,-0.1184,-0.1143,-0.1126,-0.112,-0.1133,-0.1089,-0.1083,-0.1085,-0.1087,-0.1155,-0.1163,-0.117,0,0,0,0,0,-0.1442,-0.1455,-0.1432,-0.1423,-0.1363,-0.1335,-0.1327,-0.128,-0.1258,-0.1261,-0.1222,-0.1186,-0.1136,-0.1125,-0.1117,-0.113,-0.1082,-0.1085,-0.1087,-0.1152,-0.1162,-0.117,0,0,0,0,0,0,-0.1516,-0.1446,-0.142,-0.1415,-0.1381,-0.1322,-0.1325,-0.1292,-0.1264,-0.1259,-0.1201,-0.1189,-0.1182,-0.1154,-0.1143,-0.1137,-0.1104,-0.1106,-0.1156,-0.1165,-0.1172,-0.118,-0.1087,0,0,0,0,0,-0.1531,-0.1514,-0.1455,-0.1455,-0.144,-0.1386,-0.1372,-0.1338,-0.1301,-0.1287,-0.1247,-0.1213,-0.1189,-0.1175,-0.115,-0.115,-0.1138,-0.1155,-0.1163,-0.1169,-0.1172,-0.117,-0.1178,-0.1098,-0.1098,-0.1098,0,0,-0.1563,-0.1523,-0.1516,-0.1469,-0.1439,-0.1423,-0.1374,-0.1359,-0.1347,-0.1284,-0.1269,-0.1239,-0.1196,-0.119,-0.1185,-0.1167,-0.1191,-0.1173,-0.1179,-0.1177,-0.1174,-0.1182,-0.1189,-0.11,-0.11,-0.1099,0,0,-0.1614,-0.1581,-0.1579,-0.155,-0.1506,-0.1469,-0.1469,-0.1414,-0.1392,-0.1376,-0.1329,-0.1313,-0.1273,-0.1245,-0.1226,-0.1266,-0.1231,-0.1259,-0.1299,-0.1298,-0.1304,-0.131,-0.1325,-0.1331,-0.1261,-0.1261,-0.1261,0,-0.1659,-0.1633,-0.1582,-0.157,-0.1551,-0.1493,-0.149,-0.1464,-0.1414,-0.1403,-0.1383,-0.1332,-0.13,-0.1286,-0.1296,-0.1281,-0.1279,-0.1266,-0.1308,-0.1312,-0.1317,-0.133,-0.1336,-0.1265,-0.1264,-0.1264,-0.1264,0,-0.1692,-0.1675,-0.1678,-0.1631,-0.1612,-0.1605,-0.1552,-0.1539,-0.1507,-0.1473,-0.1457,-0.1415,-0.1382,-0.1375,-0.1343,-0.1357,-0.1347,-0.1318,-0.1284,-0.1329,-0.1341,-0.1346,-0.127,-0.1269,-0.1268,-0.1267,0,0,-0.1788,-0.1712,-0.1714,-0.1693,-0.1639,-0.1625,-0.1615,-0.1582,-0.1572,-0.1539,-0.1529,-0.1497,-0.147,-0.1448,-0.1412,-0.1412,-0.1447,-0.1382,-0.138,-0.1397,-0.1461,-0.1484,-0.1491,-0.1423,-0.1424,-0.1424,-0.1465,0,-0.183,-0.181,-0.1763,-0.1757,-0.174,-0.1685,-0.1676,-0.1642,-0.161,-0.1591,-0.1554,-0.1533,-0.1498,-0.1485,-0.1481,-0.1444,-0.1459,-0.144,-0.1414,-0.1414,-0.1429,-0.1497,-0.1522,-0.1562,-0.1469,-0.147,-0.147,0,-0.1878,-0.1849,-0.1842,-0.1789,-0.1781,-0.1774,-0.174,-0.1722,-0.1683,-0.1659,-0.1635,-0.1595,-0.1581,-0.1549,-0.1529,-0.1517,-0.1504,-0.1484,-0.1484,-0.1481,-0.1446,-0.1498,-0.1574,-0.1581,-0.1477,-0.1476,-0.1476,0,-0.1951,-0.1909,-0.1899,-0.1882,-0.1821,-0.1817,-0.1791,-0.175,-0.1734,-0.1703,-0.1692,-0.1661,-0.1644,-0.1621,-0.1574,-0.1554,-0.156,-0.1523,-0.1541,-0.1542,-0.1546,-0.1547,-0.1623,-0.1535,-0.1535,-0.1535,-0.1535,0,-0.2004,-0.2002,-0.1931,-0.1926,-0.1922,-0.1867,-0.1865,-0.1833,-0.1797,-0.1785,-0.1734,-0.1723,-0.1661,-0.1643,-0.1606,-0.1596,-0.1589,-0.157,-0.156,-0.1575,-0.1578,-0.1567,-0.1564,-0.1536,-0.1536,-0.1536,-0.1536,0,-0.2085,-0.2038,-0.2024,-0.1966,-0.1952,-0.1952,-0.1902,-0.1895,-0.1858,-0.1843,-0.1836,-0.178,-0.1756,-0.1706,-0.1669,-0.1644,-0.1643,-0.1625,-0.1657,-0.1652,-0.1673,-0.1672,-0.1745,-0.1753,-0.1659,-0.166,-0.1661,0,-0.2124,-0.2121,-0.2063,-0.2051,-0.2028,-0.2009,-0.1991,-0.1937,-0.1921,-0.1876,-0.1874,-0.1846,-0.1821,-0.1785,-0.1741,-0.1712,-0.1694,-0.1721,-0.1689,-0.1705,-0.1696,-0.1698,-0.1697,-0.1729,-0.1731,-0.1732,-0.1732,0,-0.2198,-0.2174,-0.2151,-0.212,-0.2101,-0.2074,-0.2044,-0.2037,-0.1975,-0.196,-0.1935,-0.1916,-0.1877,-0.185,-0.1815,-0.1788,-0.1751,-0.1743,-0.1745,-0.1762,-0.1781,-0.1773,-0.1679,-0.1742,-0.1741,-0.174,-0.174,-0.1739,-0.226,-0.2255,-0.2214,-0.219,-0.2162,-0.2135,-0.2125,-0.2088,-0.2066,-0.2031,-0.2,-0.1978,-0.1938,-0.1886,-0.1862,-0.1844,-0.1825,-0.1829,-0.183,-0.1833,-0.184,-0.1783,-0.1837,-0.1836,-0.1836,-0.1836,-0.1836,0,-0.2332,-0.2303,-0.2282,-0.2242,-0.2223,-0.2188,-0.2153,-0.214,-0.2122,-0.2088,-0.2064,-0.2036,-0.2009,-0.1963,-0.1932,-0.1927,-0.1909,-0.1921,-0.1922,-0.1917,-0.1857,-0.1858,-0.1936,-0.1936,-0.1936,-0.1936,-0.1936,-0.1936,-0.2368,-0.2359,-0.233,-0.2306,-0.2276,-0.2255,-0.2238,-0.2213,-0.2186,-0.2156,-0.2134,-0.2104,-0.2065,-0.2031,-0.2006,-0.1992,-0.1984,-0.2002,-0.1984,-0.193,-0.1921,-0.1912,-0.1913,-0.2,-0.2001,-0.2045,-0.2045,-0.2046]},{"header":{"parameterUnit":"m.s-1","parameterCategory":1,"la1":30.2991,"la2":30.254,"lo1":-89.0895,"lo2":-89.0444,"dy":0.0017,"dx":0.0017,"nx":28,"ny":28,"refTime":"2023-03-20T15:00:00:Z","depth":0,"parameterNumber":3,"parameterNumberName":"V-component_of_WINDS"},"data":[0,0,0,0,0,0,0,0,0,0,0,0,0,0,0,0,0,0,0,0,0,0,0,0,0,0,0,0,0,0,0,0,0,0,0,0,0,0,0,0,0,0,0,0,0,0,0,0,0,0,0,0,0,0,0,0,0,0,-1.9113,-1.9113,0,-1.9148,-1.9148,-1.9149,-1.9143,-1.9142,-1.9142,-1.9141,-1.9177,-1.9178,-1.9179,0,0,0,0,0,0,0,0,0,0,0,0,0,-1.904,-1.9041,-1.9113,-1.9113,-1.9114,-1.9148,-1.9148,-1.9149,-1.9143,-1.9142,-1.9142,-1.9141,-1.9176,-1.9178,-1.918,0,0,0,0,0,0,0,0,0,0,0,0,0,-1.9073,-1.9042,-1.9113,-1.9115,-1.9115,-1.9148,-1.9149,-1.9149,-1.9143,-1.9142,-1.9142,-1.9141,-1.9175,-1.9178,-1.918,-1.9212,0,0,-1.9187,-1.9188,0,0,0,0,0,0,0,0,-1.9071,-1.9076,-1.9114,-1.9115,-1.9115,-1.914,-1.9136,-1.917,-1.9144,-1.9133,-1.9141,-1.914,-1.9165,-1.9168,-1.9177,-1.9214,-1.9215,-1.9187,-1.9188,-1.9189,-1.919,0,0,0,0,0,0,0,-1.9069,-1.9074,-1.9127,-1.9115,-1.9115,-1.9114,-1.9118,-1.9142,-1.9154,-1.9134,-1.9133,-1.9138,-1.9165,-1.9175,-1.9178,-1.9216,-1.9187,-1.9189,-1.919,-1.9191,-1.9283,-1.9284,0,0,0,0,0,0,-1.9066,-1.9072,-1.9125,-1.9128,-1.9091,-1.9116,-1.912,-1.9133,-1.9153,-1.9155,-1.9138,-1.9137,-1.9171,-1.9175,-1.9179,-1.922,-1.9189,-1.9191,-1.9193,-1.9282,-1.9283,-1.9285,0,0,0,0,0,0,-1.9064,-1.9071,-1.9124,-1.91,-1.9107,-1.9118,-1.9133,-1.9134,-1.9144,-1.9157,-1.9159,-1.9146,-1.9171,-1.9176,-1.9204,-1.9221,-1.9192,-1.9194,-1.9281,-1.9282,-1.9284,-1.9301,0,0,0,0,0,0,-1.9062,-1.907,-1.9083,-1.91,-1.9108,-1.9149,-1.9134,-1.9136,-1.9148,-1.9147,-1.9164,-1.9167,-1.917,-1.9201,-1.9207,-1.9224,-1.9196,-1.9279,-1.9282,-1.9283,-1.9299,-1.9303,-1.9307,0,0,0,0,0,-1.906,-1.9085,-1.9083,-1.909,-1.9124,-1.915,-1.9155,-1.9159,-1.9149,-1.9162,-1.9171,-1.9166,-1.9218,-1.9204,-1.921,-1.9228,-1.9278,-1.9281,-1.9283,-1.9298,-1.9302,-1.9306,0,0,0,0,0,0,-1.9068,-1.9087,-1.9086,-1.9117,-1.9132,-1.9149,-1.9165,-1.9163,-1.9181,-1.9179,-1.9183,-1.9187,-1.9217,-1.9225,-1.9209,-1.9261,-1.9247,-1.9251,-1.9255,-1.926,-1.9264,-1.9262,-1.9198,0,0,0,0,0,-1.9074,-1.9094,-1.911,-1.9136,-1.9144,-1.9153,-1.9165,-1.9167,-1.9183,-1.9189,-1.9199,-1.9214,-1.9234,-1.9247,-1.9266,-1.93,-1.9305,-1.9315,-1.9319,-1.9322,-1.9326,-1.9346,-1.9352,-1.9293,-1.9293,-1.9293,0,0,-1.9086,-1.9099,-1.9111,-1.9139,-1.915,-1.9172,-1.9159,-1.9181,-1.9197,-1.9192,-1.9221,-1.9229,-1.9246,-1.9278,-1.9293,-1.9286,-1.9343,-1.9325,-1.9327,-1.9329,-1.9349,-1.9355,-1.936,-1.9294,-1.9294,-1.9294,0,0,-1.9119,-1.913,-1.9155,-1.9167,-1.9186,-1.9192,-1.9198,-1.9215,-1.9221,-1.925,-1.9247,-1.9266,-1.9299,-1.9312,-1.9323,-1.9362,-1.936,-1.9368,-1.9388,-1.9408,-1.9413,-1.9417,-1.9434,-1.9439,-1.9372,-1.9372,-1.9372,0,-1.9132,-1.9164,-1.9168,-1.9192,-1.9204,-1.9201,-1.9227,-1.9238,-1.9261,-1.927,-1.9262,-1.9306,-1.9316,-1.9353,-1.9363,-1.937,-1.9379,-1.9367,-1.9412,-1.9416,-1.942,-1.9436,-1.9442,-1.9373,-1.9373,-1.9372,-1.9372,0,-1.918,-1.9202,-1.922,-1.9244,-1.9258,-1.9283,-1.9291,-1.9305,-1.9305,-1.9313,-1.9343,-1.9356,-1.9378,-1.9386,-1.9387,-1.9423,-1.9419,-1.9411,-1.9397,-1.9427,-1.9442,-1.9448,-1.9374,-1.9374,-1.9374,-1.9373,0,0,-1.922,-1.9247,-1.9254,-1.9265,-1.9286,-1.9303,-1.9327,-1.935,-1.9363,-1.9379,-1.9401,-1.943,-1.9424,-1.9436,-1.9438,-1.9455,-1.9488,-1.9446,-1.9446,-1.9455,-1.9532,-1.954,-1.9546,-1.9486,-1.9487,-1.9488,-1.9531,0,-1.9258,-1.9302,-1.9306,-1.9346,-1.9368,-1.9365,-1.9387,-1.9402,-1.9409,-1.9429,-1.9436,-1.9458,-1.9447,-1.9455,-1.9471,-1.9481,-1.9504,-1.9477,-1.9507,-1.9508,-1.9506,-1.9554,-1.9561,-1.9602,-1.9537,-1.9538,-1.9539,0,-1.9307,-1.9326,-1.9369,-1.9388,-1.9397,-1.9416,-1.9439,-1.9457,-1.9474,-1.9478,-1.9493,-1.9493,-1.9519,-1.9502,-1.9538,-1.952,-1.9532,-1.9539,-1.954,-1.9545,-1.9527,-1.9562,-1.9615,-1.9622,-1.9547,-1.9547,-1.9546,0,-1.9336,-1.9372,-1.9402,-1.9412,-1.9434,-1.9449,-1.9458,-1.9475,-1.9489,-1.9507,-1.9517,-1.9538,-1.955,-1.9567,-1.9573,-1.9559,-1.961,-1.9593,-1.9615,-1.9615,-1.9628,-1.9628,-1.9686,-1.9632,-1.9631,-1.9631,-1.9631,0,-1.9378,-1.9405,-1.9416,-1.9435,-1.9465,-1.947,-1.9499,-1.9508,-1.9523,-1.9544,-1.9542,-1.9562,-1.9567,-1.9588,-1.9592,-1.9623,-1.9628,-1.9633,-1.9635,-1.9635,-1.9635,-1.9645,-1.9643,-1.9633,-1.9633,-1.9632,-1.9632,0,-1.9416,-1.9424,-1.9458,-1.9477,-1.9482,-1.9504,-1.952,-1.9539,-1.9546,-1.9573,-1.9579,-1.959,-1.9615,-1.9622,-1.9651,-1.9654,-1.9691,-1.9688,-1.9686,-1.9687,-1.971,-1.9709,-1.9779,-1.9789,-1.9726,-1.9726,-1.9727,0,-1.9444,-1.9465,-1.9486,-1.9501,-1.9512,-1.9534,-1.9549,-1.9554,-1.957,-1.9592,-1.9608,-1.9633,-1.9653,-1.9692,-1.9703,-1.9726,-1.9725,-1.9748,-1.9729,-1.9729,-1.9729,-1.9729,-1.9732,-1.9753,-1.9753,-1.9754,-1.9754,0,-1.9494,-1.9497,-1.9518,-1.9542,-1.956,-1.9578,-1.9596,-1.9608,-1.9615,-1.9633,-1.9659,-1.9674,-1.9705,-1.973,-1.9753,-1.9763,-1.9761,-1.976,-1.9767,-1.9769,-1.9768,-1.9772,-1.9699,-1.9759,-1.9759,-1.9758,-1.9758,-1.9758,-1.9529,-1.9548,-1.9567,-1.9592,-1.9606,-1.9623,-1.9642,-1.9652,-1.9674,-1.97,-1.9701,-1.973,-1.9747,-1.9779,-1.979,-1.9813,-1.9806,-1.9815,-1.9818,-1.9821,-1.9824,-1.9762,-1.9816,-1.9816,-1.9816,-1.9816,-1.9816,0,-1.9581,-1.9593,-1.9616,-1.9641,-1.9661,-1.9657,-1.9676,-1.9693,-1.9719,-1.9735,-1.9756,-1.9786,-1.9811,-1.9824,-1.9848,-1.9864,-1.9864,-1.987,-1.9871,-1.9874,-1.9828,-1.9821,-1.9871,-1.9871,-1.9871,-1.987,-1.987,-1.987,-1.961,-1.9644,-1.965,-1.969,-1.9702,-1.9731,-1.9743,-1.9759,-1.9772,-1.9807,-1.9828,-1.9836,-1.9852,-1.9877,-1.99,-1.9903,-1.9914,-1.9922,-1.9925,-1.9882,-1.9876,-1.9871,-1.9865,-1.9923,-1.9923,-1.9969,-1.9969,-1.997]}]]